Terug naar catalogus

OPS 4682 DEB

ActiefPO
NORAD 51505·DEBRIS·🇺🇸 United States

Gelanceerd Apr 3, 1965 vanaf Vandenberg Space Force Base

Loading…

Volgende Passages (komende 24 uur)

TLE

VersSource: Space-Track

Epoch: Sep 13, 2026, 06:43 UTC

1 51505U 65027GR  26256.28017793 -.00000443  00000-0 -15160-2 0  9992
2 51505  90.2514  14.0277 0031870  94.7599 265.7163 12.98962515357487

Volg OPS 4682 DEB in realtime met AllMySat

Download on the App Store